Location: Newark
(34.6283°N, 36.0776°E)
Time: 15:54:50
(UTC+00:00)

Tiros 1 despin weight - Pass Details

Date: 20 September 2019
Orbit: 594 x 643 km, 48.2° (Epoch: 15 October)

Event Time Altitude Azimuth Distance (km) Brightness Sun altitude
Rises 10:40:38 0° 265° (W) 2,883 ? 52.6°
Reaches altitude 10° 10:43:15 10° 278° (W) 1,970 ? 52.3°
Maximum altitude 10:47:05 27° 336° (NNW) 1,187 ? 51.9°
Drops below altitude 10° 10:50:54 10° 34° (NE) 1,949 ? 51.4°
Sets 10:53:29 0° 47° (NE) 2,846 ? 51.1°
